Montello, Wisconsin, United States (53949)
Lat: 43.79N, Lon: 89.32W
Wx Zone: WIZ046
Local Info
Past Weather Observations for Monday, February 1, 2016

NOTE: This archive is for the closest National Weather Service station to Montello. Information may differ from the station used for current weather conditions.

Click here for Long-term Archive

Time Weather Temperature Dewpoint Humidity Pressure Winds Precip Visibility
23:55
Mostly Cloudy
Fog
23°F / -5°C 21°F / -6°C 93% 30.09 in
(1019 mb)
Calm - M1/4SM
23:35
Mostly Cloudy
Fog
23°F / -5°C 21°F / -6°C 93% 30.09 in
(1019 mb)
Calm - 1/2SM
23:15
Obscured
Fog
25°F / -4°C 23°F / -5°C 93% 30.09 in
(1019 mb)
Calm - M1/4SM
22:55
Obscured
Fog And Mist
23°F / -5°C 23°F / -5°C 100% 30.09 in
(1019 mb)
Calm - 1 1/4SM
22:35
Clear
Fog And Mist
23°F / -5°C 23°F / -5°C 100% 30.09 in
(1019 mb)
Calm - 2SM
22:15
Obscured
Fog
25°F / -4°C 23°F / -5°C 93% 30.09 in
(1019 mb)
Calm - 1/4SM
21:55
Obscured
Fog
25°F / -4°C 23°F / -5°C 93% 30.09 in
(1019 mb)
Calm - 1/2SM
21:35
Clear
Fog And Mist
27°F / -3°C 25°F / -4°C 93% 30.09 in
(1019 mb)
Calm - 3SM
21:15
Clear
Fog And Mist
25°F / -4°C 25°F / -4°C 100% 30.09 in
(1019 mb)
Calm - 5SM
20:55
Clear
Fog And Mist
25°F / -4°C 23°F / -5°C 93% 30.09 in
(1019 mb)
Calm - 5SM
20:35
Clear
Fog And Mist
25°F / -4°C 23°F / -5°C 93% 30.06 in
(1018 mb)
S 3.5 mph
(S 6 kph)
- 4SM
20:15
Clear
Fog And Mist
25°F / -4°C 23°F / -5°C 93% 30.06 in
(1018 mb)
Calm - 4SM
19:55
Clear
Fog And Mist
27°F / -3°C 25°F / -4°C 93% 30.06 in
(1018 mb)
Calm - 5SM
19:35
Clear
28°F / -2°C 25°F / -4°C 86% 30.06 in
(1018 mb)
Calm - 10SM
19:15
Clear
28°F / -2°C 25°F / -4°C 86% 30.06 in
(1018 mb)
Calm - 10SM
18:55
Clear
28°F / -2°C 25°F / -4°C 86% 30.06 in
(1018 mb)
SSW 3.5 mph
(SSW 6 kph)
- 10SM
18:35
Clear
32°F / 0°C 27°F / -3°C 80% 30.06 in
(1018 mb)
Calm - 10SM
18:15
Clear
32°F / 0°C 27°F / -3°C 80% 30.06 in
(1018 mb)
WNW 3.5 mph
(WNW 6 kph)
- 10SM
17:55
Clear
32°F / 0°C 27°F / -3°C 80% 30.06 in
(1018 mb)
SSW 4.6 mph
(SSW 7 kph)
- 10SM
17:35
Clear
34°F / 1°C 27°F / -3°C 75% 30.06 in
(1018 mb)
SW 4.6 mph
(SW 7 kph)
- 10SM
17:15
Clear
36°F / 2°C 27°F / -3°C 70% 30.06 in
(1018 mb)
SSW 4.6 mph
(SSW 7 kph)
- 10SM
16:55
Clear
36°F / 2°C 27°F / -3°C 70% 30.04 in
(1017 mb)
SW 3.5 mph
(SW 6 kph)
- 10SM
16:35
Clear
36°F / 2°C 27°F / -3°C 70% 30.04 in
(1017 mb)
SSW 5.8 mph
(SSW 9 kph)
- 10SM
16:15
Clear
37°F / 3°C 27°F / -3°C 65% 30.04 in
(1017 mb)
SSW 5.8 mph
(SSW 9 kph)
- 10SM
15:55
Clear
37°F / 3°C 27°F / -3°C 65% 30.04 in
(1017 mb)
SW 8.1 mph
(SW 13 kph)
- 10SM
15:35
Clear
39°F / 4°C 27°F / -3°C 61% 30.01 in
(1016 mb)
W 4.6 mph
(W 7 kph)
- 10SM
15:15
Clear
39°F / 4°C 27°F / -3°C 61% 30.01 in
(1016 mb)
W 4.6 mph
(W 7 kph)
- 10SM
14:55
Clear
39°F / 4°C 27°F / -3°C 61% 30.01 in
(1016 mb)
SSW 3.5 mph
(SSW 6 kph)
- 10SM
14:35
Clear
39°F / 4°C 27°F / -3°C 61% 30.01 in
(1016 mb)
SSW 6.9 mph
(SSW 11 kph)
- 10SM
14:15
Clear
39°F / 4°C 28°F / -2°C 65% 30.01 in
(1016 mb)
SW 3.5 mph
(SW 6 kph)
- 10SM
13:55
Clear
39°F / 4°C 28°F / -2°C 65% 30.01 in
(1016 mb)
SW 4.6 mph
(SW 7 kph)
- 10SM
13:35
Clear
37°F / 3°C 28°F / -2°C 70% 30.01 in
(1016 mb)
S 3.5 mph
(S 6 kph)
- 10SM
13:15
Clear
37°F / 3°C 28°F / -2°C 70% 30.01 in
(1016 mb)
S 3.5 mph
(S 6 kph)
- 10SM
12:55
Clear
37°F / 3°C 28°F / -2°C 70% 30.01 in
(1016 mb)
S 3.5 mph
(S 6 kph)
- 10SM
12:35
Clear
36°F / 2°C 28°F / -2°C 75% 30.01 in
(1016 mb)
Calm - 10SM
12:15
Clear
36°F / 2°C 28°F / -2°C 75% 30.01 in
(1016 mb)
Calm - 10SM
11:55
Clear
36°F / 2°C 28°F / -2°C 75% 30.01 in
(1016 mb)
SSW 4.6 mph
(SSW 7 kph)
- 10SM
11:35
Clear
36°F / 2°C 28°F / -2°C 75% 30.01 in
(1016 mb)
Calm - 10SM
11:15
Clear
34°F / 1°C 28°F / -2°C 81% 30.04 in
(1017 mb)
W 4.6 mph
(W 7 kph)
- 10SM
10:55
Clear
32°F / 0°C 30°F / -1°C 93% 30.01 in
(1016 mb)
SW 4.6 mph
(SW 7 kph)
- 10SM
10:35
Clear
30°F / -1°C 30°F / -1°C 100% 30.01 in
(1016 mb)
SW 4.6 mph
(SW 7 kph)
- 10SM
10:15
Clear
30°F / -1°C 28°F / -2°C 93% 30.01 in
(1016 mb)
SW 3.5 mph
(SW 6 kph)
- 10SM
09:55
Clear
28°F / -2°C 27°F / -3°C 93% 30.01 in
(1016 mb)
Calm - 10SM
09:35
Clear
27°F / -3°C 27°F / -3°C 100% 29.98 in
(1015 mb)
Calm - 7SM
09:15
Clear
Fog And Mist
27°F / -3°C 25°F / -4°C 93% 29.98 in
(1015 mb)
Calm - 4SM
08:55
Obscured
Fog And Mist
27°F / -3°C 27°F / -3°C 100% 29.98 in
(1015 mb)
Calm - 1 3/4SM
08:35
Obscured
Fog And Mist
27°F / -3°C 25°F / -4°C 93% 29.98 in
(1015 mb)
Calm - 1 3/4SM
08:15
Clear
Fog And Mist
25°F / -4°C 25°F / -4°C 100% 29.98 in
(1015 mb)
SSW 3.5 mph
(SSW 6 kph)
- 3SM
07:55
Obscured
Fog
21°F / -6°C 21°F / -6°C 100% 29.95 in
(1014 mb)
SW 3.5 mph
(SW 6 kph)
- 1/2SM
07:35
Obscured
Fog
21°F / -6°C 21°F / -6°C 100% 29.95 in
(1014 mb)
Calm - 1/4SM
07:15
Mostly Cloudy
Fog
25°F / -4°C 23°F / -5°C 93% 29.95 in
(1014 mb)
SW 3.5 mph
(SW 6 kph)
- 1/4SM
06:55
Mostly Cloudy
Fog
23°F / -5°C 21°F / -6°C 93% 29.95 in
(1014 mb)
Calm - 1/4SM
06:35
Obscured
Fog
23°F / -5°C 23°F / -5°C 100% 29.92 in
(1013 mb)
SSW 3.5 mph
(SSW 6 kph)
- 1/2SM
06:15
Obscured
Fog And Mist
23°F / -5°C 21°F / -6°C 93% 29.92 in
(1013 mb)
SSW 4.6 mph
(SSW 7 kph)
- 1 3/4SM
05:55
Obscured
Fog And Mist
25°F / -4°C 25°F / -4°C 100% 29.92 in
(1013 mb)
W 3.5 mph
(W 6 kph)
- 1 1/4SM
05:35
Obscured
Fog
25°F / -4°C 23°F / -5°C 93% 29.92 in
(1013 mb)
SSW 3.5 mph
(SSW 6 kph)
- 1/2SM
05:15
Obscured
Fog
25°F / -4°C 25°F / -4°C 100% 29.89 in
(1012 mb)
Calm - 1/2SM
04:55
Obscured
Fog And Mist
25°F / -4°C 25°F / -4°C 100% 29.89 in
(1012 mb)
Calm - 1 1/4SM
04:35
Obscured
Fog And Mist
25°F / -4°C 23°F / -5°C 93% 29.89 in
(1012 mb)
SW 3.5 mph
(SW 6 kph)
- 1SM
04:15
Clear
27°F / -3°C 25°F / -4°C 93% 29.89 in
(1012 mb)
SW 3.5 mph
(SW 6 kph)
- 10SM
03:55
Clear
28°F / -2°C 27°F / -3°C 93% 29.89 in
(1012 mb)
SW 4.6 mph
(SW 7 kph)
- 10SM
03:35
Clear
28°F / -2°C 27°F / -3°C 93% 29.89 in
(1012 mb)
SSW 5.8 mph
(SSW 9 kph)
- 10SM
03:15
Clear
28°F / -2°C 27°F / -3°C 93% 29.89 in
(1012 mb)
SSW 4.6 mph
(SSW 7 kph)
- 10SM
02:55
Clear
28°F / -2°C 27°F / -3°C 93% 29.89 in
(1012 mb)
SSW 5.8 mph
(SSW 9 kph)
- 10SM
02:35
Clear
27°F / -3°C 27°F / -3°C 100% 29.86 in
(1011 mb)
SSW 3.5 mph
(SSW 6 kph)
- 10SM
02:15
Clear
28°F / -2°C 27°F / -3°C 93% 29.86 in
(1011 mb)
Calm - 10SM
01:55
Clear
28°F / -2°C 27°F / -3°C 93% 29.86 in
(1011 mb)
SSW 4.6 mph
(SSW 7 kph)
- 10SM
01:35
Clear
28°F / -2°C 27°F / -3°C 93% 29.83 in
(1010 mb)
SSW 3.5 mph
(SSW 6 kph)
- 10SM
01:15
Clear
28°F / -2°C 27°F / -3°C 93% 29.83 in
(1010 mb)
SSW 3.5 mph
(SSW 6 kph)
- 10SM
00:55
Clear
28°F / -2°C 27°F / -3°C 93% 29.83 in
(1010 mb)
SW 3.5 mph
(SW 6 kph)
- 10SM
00:35
Clear
28°F / -2°C 27°F / -3°C 93% 29.83 in
(1010 mb)
Calm - 10SM
00:15
Clear
30°F / -1°C 27°F / -3°C 86% 29.83 in
(1010 mb)
SW 4.6 mph
(SW 7 kph)
- 10SM
Time Weather Temperature Dewpoint Humidity Pressure Winds Precip Visibility


Weather for websites

WeatherForYou.com, LLC is not responsible for any damages or problems caused by this service. Current weather conditions are obtained from the closest station including government and personal stations which may have varying degrees of accuracy. Weather forecasts are derived from the NOAA NDFD. Like all things, this site belongs to Jesus Christ... He just trusts us to maintain it. If you have any questions or comments email webmaster@weatherforyou.com

Copyright © 2016, WeatherForYou.com LLC. All rights reserved.